When you browse on this site, cookies collect data to enhance your experience and personalize the content and advertising you see.
Visit our Privacy Policy to learn more. By continuing to use the site, you agree to this use of cookies and data.
  • în România
  • Lista ţărilor
  • Pe 7 zile
  • Temperatura apei
  • Hartă satelitară
  • Meteo pe hartă
  • Widget-uri
  • user-avatar
    Intrare

    Meteo pe oră la Guskhara

    Astăzi, 16 Februarie, Sâmbătă

    Timp Temperatura Precipitaţii Vânt Presiune Umiditate
    00:00 +26°C° 0 mm 2 m/s 759 mmHg 47%
    01:00 +25°C° 0 mm 2 m/s 759 mmHg 49%
    02:00 +25°C° 0 mm 3 m/s 759 mmHg 50%
    03:00 +25°C° 0 mm 3 m/s 759 mmHg 52%
    04:00 +24°C° 0 mm 3 m/s 759 mmHg 53%
    05:00 +24°C° 0 mm 3 m/s 759 mmHg 53%
    06:00 +22°C° 0 mm 3 m/s 759 mmHg 53%
    07:00 +22°C° 0 mm 3 m/s 760 mmHg 54%
    08:00 +22°C° 0 mm 3 m/s 760 mmHg 55%
    09:00 +22°C° 0 mm 3 m/s 760 mmHg 56%
    10:00 +25°C° 0 mm 3 m/s 760 mmHg 51%
    11:00 +27°C° 0 mm 2 m/s 759 mmHg 45%
    12:00 +28°C° 0 mm 2 m/s 759 mmHg 39%
    13:00 +29°C° 0 mm 2 m/s 758 mmHg 37%
    14:00 +30°C° 0 mm 2 m/s 757 mmHg 35%
    15:00 +31°C° 0 mm 2 m/s 756 mmHg 33%
    16:00 +30°C° 0 mm 2 m/s 756 mmHg 35%
    17:00 +29°C° 0 mm 2 m/s 756 mmHg 37%
    18:00 +29°C° 0 mm 2 m/s 755 mmHg 39%
    19:00 +27°C° 2.3 mm 2 m/s 756 mmHg 49%
    20:00 +25°C° 2.3 mm 3 m/s 756 mmHg 59%
    21:00 +24°C° 2.3 mm 3 m/s 756 mmHg 70%
    22:00 +24°C° 0 mm 3 m/s 757 mmHg 69%
    23:00 +24°C° 0 mm 2 m/s 757 mmHg 69%

    Mâine, 17 Februarie, Duminică

    Timp Temperatura Precipitaţii Vânt Presiune Umiditate
    00:00 +24°C° 0 mm 2 m/s 757 mmHg 68%
    01:00 +23°C° 0.2 mm 2 m/s 756 mmHg 70%
    02:00 +23°C° 0.2 mm 2 m/s 756 mmHg 72%
    03:00 +21°C° 0.2 mm 2 m/s 756 mmHg 74%
    04:00 +22°C° 0.2 mm 1 m/s 756 mmHg 75%
    05:00 +22°C° 0.2 mm 1 m/s 756 mmHg 76%
    06:00 +19°C° 0.2 mm 0 m/s 756 mmHg 77%
    07:00 +23°C° 0 mm 1 m/s 757 mmHg 71%
    08:00 +24°C° 0 mm 2 m/s 757 mmHg 65%
    09:00 +25°C° 0 mm 2 m/s 758 mmHg 59%
    10:00 +27°C° 0 mm 3 m/s 757 mmHg 51%
    11:00 +28°C° 0 mm 3 m/s 757 mmHg 43%
    12:00 +30°C° 0 mm 4 m/s 757 mmHg 35%
    13:00 +30°C° 0 mm 4 m/s 756 mmHg 31%
    14:00 +32°C° 0 mm 4 m/s 755 mmHg 27%
    15:00 +32°C° 0 mm 5 m/s 754 mmHg 22%
    16:00 +30°C° 0 mm 4 m/s 754 mmHg 24%
    17:00 +29°C° 0 mm 3 m/s 754 mmHg 26%
    18:00 +28°C° 0 mm 3 m/s 754 mmHg 27%
    19:00 +27°C° 0 mm 3 m/s 754 mmHg 30%
    20:00 +25°C° 0 mm 3 m/s 755 mmHg 34%
    21:00 +24°C° 0 mm 3 m/s 755 mmHg 37%
    22:00 +22°C° 0 mm 3 m/s 755 mmHg 40%
    23:00 +22°C° 0 mm 3 m/s 755 mmHg 42%

    Poimâine, 18 Februarie, Luni

    Timp Temperatura Precipitaţii Vânt Presiune Umiditate
    00:00 +21°C° 0 mm 2 m/s 755 mmHg 45%
    01:00 +21°C° 0 mm 2 m/s 755 mmHg 49%
    02:00 +20°C° 0 mm 2 m/s 755 mmHg 52%
    03:00 +20°C° 0 mm 2 m/s 755 mmHg 56%
    04:00 +20°C° 0 mm 2 m/s 755 mmHg 59%
    05:00 +20°C° 0 mm 1 m/s 755 mmHg 61%
    06:00 +20°C° 0 mm 1 m/s 755 mmHg 64%
    07:00 +21°C° 0 mm 1 m/s 756 mmHg 60%
    08:00 +23°C° 0 mm 2 m/s 757 mmHg 57%
    09:00 +24°C° 0 mm 2 m/s 757 mmHg 53%
    10:00 +25°C° 0 mm 2 m/s 757 mmHg 47%
    11:00 +27°C° 0 mm 2 m/s 757 mmHg 40%
    12:00 +28°C° 0 mm 3 m/s 757 mmHg 34%
    13:00 +29°C° 0 mm 3 m/s 756 mmHg 30%
    14:00 +30°C° 0 mm 3 m/s 755 mmHg 27%
    15:00 +30°C° 0 mm 3 m/s 754 mmHg 24%
    16:00 +29°C° 0 mm 2 m/s 754 mmHg 26%
    17:00 +29°C° 0 mm 2 m/s 754 mmHg 27%
    18:00 +28°C° 0 mm 1 m/s 754 mmHg 29%
    19:00 +27°C° 0 mm 1 m/s 755 mmHg 30%
    20:00 +26°C° 0 mm 1 m/s 755 mmHg 31%
    21:00 +25°C° 0 mm 1 m/s 756 mmHg 32%
    22:00 +24°C° 0 mm 1 m/s 756 mmHg 34%
    23:00 +24°C° 0 mm 1 m/s 756 mmHg 37%

    19 Februarie, Marţi

    Timp Temperatura Precipitaţii Vânt Presiune Umiditate
    00:00 +23°C° 0 mm 1 m/s 756 mmHg 39%
    01:00 +23°C° 0 mm 1 m/s 756 mmHg 41%
    02:00 +22°C° 0 mm 1 m/s 756 mmHg 43%
    03:00 +22°C° 0 mm 1 m/s 756 mmHg 45%
    04:00 +21°C° 0 mm 1 m/s 756 mmHg 48%
    05:00 +21°C° 0 mm 1 m/s 756 mmHg 50%
    06:00 +20°C° 0 mm 1 m/s 756 mmHg 52%
    07:00 +22°C° 0 mm 1 m/s 757 mmHg 49%
    08:00 +23°C° 0 mm 1 m/s 758 mmHg 46%
    09:00 +25°C° 0 mm 1 m/s 758 mmHg 43%
    10:00 +27°C° 0 mm 1 m/s 758 mmHg 37%
    11:00 +29°C° 0 mm 1 m/s 758 mmHg 32%
    12:00 +31°C° 0 mm 1 m/s 758 mmHg 27%
    13:00 +31°C° 0 mm 1 m/s 757 mmHg 25%
    14:00 +32°C° 0 mm 1 m/s 756 mmHg 24%
    15:00 +32°C° 0 mm 2 m/s 756 mmHg 22%
    16:00 +32°C° 0 mm 1 m/s 756 mmHg 24%
    17:00 +31°C° 0 mm 1 m/s 756 mmHg 26%
    18:00 +30°C° 0 mm 1 m/s 756 mmHg 28%
    19:00 +29°C° 0 mm 1 m/s 757 mmHg 29%
    20:00 +28°C° 0 mm 1 m/s 758 mmHg 31%
    21:00 +27°C° 0 mm 1 m/s 758 mmHg 32%
    22:00 +26°C° 0 mm 1 m/s 758 mmHg 34%
    23:00 +26°C° 0 mm 1 m/s 758 mmHg 35%

    20 Februarie, Miercuri

    Timp Temperatura Precipitaţii Vânt Presiune Umiditate
    00:00 +25°C° 0 mm 1 m/s 758 mmHg 37%
    01:00 +24°C° 0 mm 1 m/s 758 mmHg 40%
    02:00 +24°C° 0 mm 1 m/s 758 mmHg 44%
    03:00 +23°C° 0 mm 1 m/s 757 mmHg 47%
    04:00 +23°C° 0 mm 1 m/s 758 mmHg 48%
    05:00 +23°C° 0 mm 1 m/s 758 mmHg 50%
    06:00 +22°C° 0 mm 1 m/s 758 mmHg 52%
    07:00 +24°C° 0 mm 2 m/s 759 mmHg 48%
    08:00 +25°C° 0 mm 2 m/s 759 mmHg 44%
    09:00 +26°C° 0 mm 2 m/s 760 mmHg 40%
    10:00 +28°C° 0 mm 1 m/s 760 mmHg 37%
    11:00 +30°C° 0 mm 1 m/s 759 mmHg 34%
    12:00 +30°C° 0 mm 0 m/s 759 mmHg 30%
    13:00 +33°C° 0 mm 1 m/s 758 mmHg 27%
    14:00 +34°C° 0 mm 2 m/s 757 mmHg 25%
    15:00 +35°C° 0 mm 3 m/s 757 mmHg 22%
    16:00 +34°C° 0 mm 2 m/s 757 mmHg 23%
    17:00 +32°C° 0 mm 2 m/s 757 mmHg 25%
    18:00 +31°C° 0 mm 1 m/s 757 mmHg 26%
    19:00 +30°C° 0 mm 2 m/s 758 mmHg 28%
    20:00 +29°C° 0 mm 2 m/s 758 mmHg 29%
    21:00 +28°C° 0 mm 2 m/s 759 mmHg 30%
    22:00 +27°C° 0 mm 2 m/s 759 mmHg 32%
    23:00 +27°C° 0 mm 2 m/s 759 mmHg 34%

    21 Februarie, Joi

    Timp Temperatura Precipitaţii Vânt Presiune Umiditate
    00:00 +26°C° 0 mm 1 m/s 759 mmHg 35%
    01:00 +25°C° 0 mm 1 m/s 759 mmHg 36%
    02:00 +25°C° 0 mm 1 m/s 759 mmHg 38%
    03:00 +22°C° 0 mm 0 m/s 759 mmHg 39%
    04:00 +24°C° 0 mm 1 m/s 759 mmHg 40%
    05:00 +24°C° 0 mm 1 m/s 759 mmHg 41%
    06:00 +23°C° 0 mm 1 m/s 759 mmHg 42%
    07:00 +24°C° 0 mm 1 m/s 760 mmHg 40%
    08:00 +26°C° 0 mm 1 m/s 760 mmHg 39%
    09:00 +27°C° 0 mm 1 m/s 761 mmHg 37%
    10:00 +29°C° 0 mm 1 m/s 761 mmHg 33%
    11:00 +30°C° 0 mm 1 m/s 760 mmHg 30%
    12:00 +32°C° 0 mm 1 m/s 760 mmHg 26%
    13:00 +34°C° 0 mm 2 m/s 759 mmHg 25%
    14:00 +35°C° 0 mm 2 m/s 758 mmHg 23%
    15:00 +35°C° 0 mm 3 m/s 757 mmHg 22%
    16:00 +34°C° 0 mm 2 m/s 757 mmHg 24%
    17:00 +32°C° 0 mm 2 m/s 757 mmHg 25%
    18:00 +32°C° 0 mm 2 m/s 757 mmHg 27%
    19:00 +30°C° 0 mm 2 m/s 758 mmHg 29%
    20:00 +29°C° 0 mm 2 m/s 758 mmHg 32%
    21:00 +28°C° 0 mm 2 m/s 759 mmHg 34%
    22:00 +27°C° 0 mm 2 m/s 759 mmHg 36%
    23:00 +27°C° 0 mm 2 m/s 758 mmHg 38%
    Arată mai mult